Meteo Giornale » Osservazioni meteo Italia » Capo Mele

ore: 12:55 - Osservazioni Meteo Capo Mele
Lat. 43° 57' N Lon. 8° 10' E Alt. 220 metri s.l.m.

poco_nuvoloso Europe/Rome

21 °C

Poco Nuvoloso

Temp. 24 Ore

18 °C

21 °C

Nord/Nord-Est

11.1 Km/h

Dew point 12 °C

Umidità 56 %

Visibilità  10 Km

Il sole sorge alle ore 07:44

Il sole tramonta alle ore 18:40

Data e Ora Cielo e Fenomeni T °C DP °C Um. % Pres. hPa Vis. km Vento km/h
Oggi h: 12:55 poco_nuvoloso Poco Nuvoloso 21 12 56 1015 10 N/NE 11.1
Oggi h: 11:55 poco_nuvoloso Poco Nuvoloso 21 12 56 1015 10 N/NE 11.1
Oggi h: 10:55 poco_nuvoloso Poco Nuvoloso 21 12 56 1015 10 NE 14.8
Oggi h: 09:55 poco_nuvoloso Poco Nuvoloso 19 10 55 1015 10 N/NE 14.8
Oggi h: 08:55 poco_nuvoloso Poco Nuvoloso 18 10 59 1015 10 N/NE 13
Oggi h: 07:55 poco_nuvoloso Poco Nuvoloso 19 10 55 1015 10 E 14.8
Oggi h: 06:55 poco_nuvoloso Poco Nuvoloso 19 10 55 1015 10 E 7.4
Oggi h: 05:55 poco_nuvoloso Poco Nuvoloso 19 10 55 1015 10 E 7.4
Oggi h: 04:55 nuvoloso Nuvoloso 19 10 55 1015 10 E 9.3
Oggi h: 03:55 nuvoloso Nuvoloso 18 10 59 1016 10 E 14.8
Oggi h: 02:55 nuvoloso Nuvoloso 18 10 59 1016 10 N 3.7
Oggi h: 01:55 nuvoloso Nuvoloso 18 11 63 1016 10 E 7.4
Oggi h: 00:55 nuvoloso Nuvoloso 18 10 59 1017 10 N 3.7
Ieri h: 23:55 nuvoloso Nuvoloso 18 9 55 1017 10 E 9.3
Ieri h: 22:55 nuvoloso Nuvoloso 18 9 55 1017 10 N 14.8
Ieri h: 21:55 nuvoloso Nuvoloso 18 11 63 1017 10 NE 13
Ieri h: 20:55 nuvoloso Nuvoloso 18 11 63 1016 10 NE 9.3
Ieri h: 19:55 coperto_pioggia Pioggia Debole 18 11 63 1016 10 NE 13
Ieri h: 18:55 coperto_pioggia Pioggia Debole 18 11 63 1016 10 N/NE 13
Ieri h: 16:55 sereno Sereno 20 11 56 1016 10 NE 13